Location: Newark
(25.6108°S, 54.5803°W)
Time: 08:08:49
(UTC+00:00)

Courier 1B - Pass Details

Date: 01 November 2020
Orbit: 962 x 1209 km, 28.3° (Epoch: 02 December)

Event Time Altitude Azimuth Distance (km) Brightness Sun altitude
Rises 22:29:15 0° 314° (NW) 3,743 10.9 -8.2°
Reaches altitude 10° 22:32:04 10° 322° (NW) 2,830 10.2 -8.8°
Maximum altitude 22:38:24 38° 27° (NNE) 1,587 8.3 -10.1°
Enters shadow 22:44:56 11° 92° (E) 2,953 9.5 -11.4°
Drops below altitude 10° 22:45:07 10° 93° (E) 3,013 - -11.5°
Sets 22:48:12 0° 100° (E) 4,012 - -12.1°
